Location: Aufkirchen
(47.9603°N, 11.3653°E)
Time: 13:32:50
(UTC+01:00)

Transit 2A Rocket - Pass Details

Date: 13 December 2020
Orbit: 592 x 910 km, 66.7° (Epoch: 21 January)

Event Time Altitude Azimuth Distance (km) Brightness Sun altitude
Rises 21:15:23 0° 168° (SSE) 3,486 - -47.7°
Reaches altitude 10° 21:18:34 10° 153° (SSE) 2,517 - -48.2°
Maximum altitude 21:22:39 20° 108° (ESE) 1,861 - -48.8°
Drops below altitude 10° 21:26:33 10° 63° (ENE) 2,401 - -49.4°
Sets 21:29:29 0° 47° (NE) 3,277 - -49.9°
